User: anonymous   Login
Location: McDonald Observatory
(30.6717°N, 104.0221°W)
Time: 19:57:14
(UTC-06:00)
Language:

Cosmos 1484 Rocket - Orbit

View from above orbital plane
View from above orbital plane
View from above satellite
View from above satellite

Ground track
Ground track

The orbit data is extracted from the following two-line orbital elements,

1 14208U 83075B   18050.59305521 +.00000213 +00000-0 +16463-4 0  9992
2 14208 097.3424 056.0225 0039191 359.8470 000.2741 15.10623759884558
Epoch (UTC): 19 February 2018 14:13:59
Eccentricity: 0.0039191
inclination: 97.3424°
perigee height: 507 km
apogee height: 561 km
right ascension of ascending node: 56.0225°
argument of perigee: 359.8470°
revolutions per day: 15.10623759
mean anomaly at epoch: 0.2741°
orbit number at epoch: 88455

The dashed part of the orbit path shows where the satellite is in the earth's shadow,  

DLR